Location: St. Louis
(38.6270°N, 90.1994°W)
Time: 13:10:00
(UTC-06:00)

deb Explorer IX - Pass Details

Date: 09 December 2021
Orbit: 544 x 1082 km, 38.8° (Epoch: 16 January)

Event Time Altitude Azimuth Distance (km) Brightness Sun altitude
Rises 14:03:50 0° 270° (W) 2,793 ? 21.3°
Reaches altitude 10° 14:07:40 10° 236° (SW) 1,826 ? 20.9°
Maximum altitude 14:09:00 11° 217° (SW) 1,725 ? 20.8°
Drops below altitude 10° 14:10:19 10° 198° (SSW) 1,800 ? 20.6°
Sets 14:14:00 0° 163° (SSE) 2,686 ? 20.2°
